This demonstration page uses our WeatherBlox Daily Observations layout. Learn more.

Left ArrowRight Arrow

Hourly Observations for November 10, 2020

Temp ( °F °C ) Dew Point ( °F °C ) Humidity (%) Winds ( mph kmh ) Pressure ( in mb ) Visibility ( mi km ) Precip ( " mm )
12:53 am 00:53 Clear 57 13.9 52 11.1 83 83 E 5 7 30.08 1019 10 16 0.00 0.00
1:53 am 01:53 Clear 53 11.7 50 10 89 89 Calm 30.07 1018 10 16 0.00 0.00
2:53 am 02:53 Clear 54 12.2 51 10.6 90 90 E 5 7 30.07 1018 10 16 0.00 0.00
3:53 am 03:53 Clear 56 13.3 52 11.1 87 87 E 3 6 30.06 1018 10 16 0.00 0.00
4:53 am 04:53 Mostly Clear 55 12.8 51 10.6 87 87 E 3 6 30.07 1018 10 16 0.00 0.00
5:53 am 05:53 Cloudy 58 14.4 53 11.7 84 84 E 5 7 30.07 1018 10 16 0.00 0.00
6:53 am 06:53 Cloudy 58 14.4 53 11.7 84 84 E 3 6 30.07 1018 10 16 0.00 0.00
7:53 am 07:53 Cloudy 59 15 53 11.7 81 81 E 3 6 30.06 1018 10 16 0.00 0.00
8:53 am 08:53 Partly Cloudy 64 17.8 54 12.2 70 70 Calm 30.06 1018 10 16 0.00 0.00
9:53 am 09:53 Cloudy 70 21.1 55 12.8 59 59 VRB 5 7 30.05 1018 10 16 0.00 0.00
10:53 am 10:53 Mostly Cloudy 74 23.3 56 13.3 54 54 VRB 5 7 30.04 1017 10 16 0.00 0.00
11:53 am 11:53 Mostly Sunny 77 25 57 13.9 50 50 SSW 7 11 30.00 1016 10 16 0.00 0.00
12:53 pm 12:53 Sunny 80 26.7 58 14.4 47 47 S 12 19 29.95 1014 10 16 0.00 0.00
1:53 pm 13:53 Mostly Sunny 80 26.7 59 15 49 49 S 9 15 29.92 1013 10 16 0.00 0.00
2:53 pm 14:53 Mostly Cloudy 81 27.2 59 15 47 47 S 10 17 29.89 1012 10 16 0.00 0.00
3:53 pm 15:53 Cloudy 80 26.7 59 15 49 49 S 8 13 29.88 1012 10 16 0.00 0.00
4:53 pm 16:53 Mostly Sunny 78 25.6 58 14.4 50 50 S 8 13 29.88 1012 10 16 0.00 0.00
5:53 pm 17:53 Cloudy 76 24.4 58 14.4 54 54 VRB 7 11 29.86 1011 10 16 0.00 0.00
6:53 pm 18:53 Cloudy 75 23.9 58 14.4 55 55 VRB 6 9 29.86 1011 10 16 0.00 0.00
7:53 pm 19:53 Mostly Cloudy 75 23.9 58 14.4 55 55 VRB 5 7 29.85 1011 10 16 0.00 0.00
8:53 pm 20:53 Cloudy 73 22.8 61 16.1 66 66 SSW 9 15 29.86 1011 10 16 0.00 0.00
9:53 pm 21:53 Cloudy with Light Rain 67 19.4 64 17.8 91 91 S 7 11 29.88 1012 8 13 0.02 0.51
10:49 pm 22:49 Cloudy with Light Rain 66 19 64 18 94 94 VRB 6 9 29.86 1011 8 13 0.00 0.00
10:50 pm 22:50 Cloudy with Light Rain 67 19.4 64 17.8 91 91 S 5 7 29.86 1011 7 11 0.00 0.00
11:38 pm 23:38 Cloudy with Light Rain 67 19.4 65 18.3 93 93 S 5 7 29.85 1011 5 8 0.07 1.78
11:53 pm 23:53 Cloudy with Light Rain 67 19.4 65 18.3 93 93 S 8 13 29.84 1010 5 8 0.08 2.03

Powered by AerisWeather